This demonstration page uses our WeatherBlox Daily Observations layout. Learn more.

39.92423, -83.80882

Hourly Observations for September 2, 2016

Temp ( °F °C ) Dew Point ( °F °C ) Humidity (%) Winds ( mph kmh ) Pressure ( in mb ) Visibility ( mi km ) Precip ( " mm )
12:56 am 00:56 Clear 61 16.1 56 13.3 84 84 NNE 9 15 30.13 1020 10 16.0934 0 0
1:56 am 01:56 Clear 60 15.6 56 13.3 86 86 NE 10 17 30.13 1020 10 16.0934 0 0
2:56 am 02:56 Clear 59 15 56 13.3 90 90 NNE 7 11 30.13 1020 10 16.0934 0 0
3:56 am 03:56 Clear 60 15.6 57 13.9 90 90 NNE 8 13 30.13 1020 10 16.0934 0 0
4:56 am 04:56 Clear 59 15 57 13.9 93 93 NNE 8 13 30.15 1021 10 16.0934 0 0
6:56 am 06:56 Clear 57 13.9 56 13.3 96 96 NE 5 7 30.16 1022 10 16.0934 0 0
7:56 am 07:56 Sunny 59 15 57 13.9 93 93 ENE 6 9 30.18 1022 10 16.0934 0 0
8:56 am 08:56 Sunny 64 17.8 59 15 84 84 ENE 12 19 30.17 1022 10 16.0934 0 0
9:56 am 09:56 Sunny 67 19.4 58 14.4 73 73 ENE 10 17 30.19 1022 10 16.0934 0 0
10:56 am 10:56 Sunny 70 21.1 58 14.4 66 66 E 12 19 30.19 1022 10 16.0934 0 0
11:56 am 11:56 Mostly Sunny 73 22.8 58 14.4 59 59 ENE 15 24 30.19 1022 10 16.0934 0 0
12:56 pm 12:56 Partly Cloudy 74 23.3 58 14.4 57 57 NE 16 26 30.17 1022 10 16.0934 0 0
1:56 pm 13:56 Mostly Cloudy 76 24.4 56 13.3 50 50 NE 17 28 30.16 1021 10 16.0934 0 0
2:56 pm 14:56 Cloudy 76 24.4 57 13.9 52 52 ENE 15 24 30.15 1021 10 16.0934 0 0
3:56 pm 15:56 Partly Cloudy 77 25 56 13.3 48 48 ENE 16 26 30.13 1020 10 16.0934 0 0
4:56 pm 16:56 Partly Cloudy 75 23.9 57 13.9 54 54 NNE 14 22 30.12 1020 10 16.0934 0 0
5:56 pm 17:56 Mostly Cloudy 75 23.9 58 14.4 55 55 NE 13 20 30.11 1020 10 16.0934 0 0
6:56 pm 18:56 Partly Cloudy 74 23.3 59 15 60 60 NNE 16 26 30.11 1020 10 16.0934 0 0
7:56 pm 19:56 Sunny 69 20.6 59 15 70 70 NE 13 20 30.12 1020 10 16.0934 0 0
8:56 pm 20:56 Partly Cloudy 67 19.4 59 15 76 76 NNE 13 20 30.14 1021 10 16.0934 0 0
9:56 pm 21:56 Clear 65 18.3 58 14.4 78 78 NNE 12 19 30.16 1021 10 16.0934 0 0
10:56 pm 22:56 Clear 64 17.8 57 13.9 78 78 NE 13 20 30.16 1021 10 16.0934 0 0
11:56 pm 23:56 Clear 62 16.7 56 13.3 80 80 NE 13 20 30.16 1021 10 16.0934 0 0

Powered by AerisWeather